This demonstration page uses our WeatherBlox Daily Observations layout. Learn more.

Left ArrowRight Arrow

41.86663, -103.66717

Hourly Observations for October 6, 2022

Temp ( °F °C ) Dew Point ( °F °C ) Humidity (%) Winds ( mph kmh ) Pressure ( in mb ) Visibility ( mi km ) Precip ( " mm )
12:53 am 00:53 Clear 45 7.2 40 4.4 82 82 WNW 3 6 30.25 1024 10 16 0.00 0.00
1:53 am 01:53 Clear 45 7.2 40 4.4 82 82 Calm 30.25 1024 10 16 0.00 0.00
2:53 am 02:53 Clear 43 6.1 39 3.9 86 86 NNW 5 7 30.25 1024 10 16 0.00 0.00
3:53 am 03:53 Clear 42 5.6 38 3.3 85 85 WNW 3 6 30.24 1024 10 16 0.00 0.00
4:53 am 04:53 Clear 41 5 37 2.8 86 86 N 5 7 30.24 1024 10 16 0.00 0.00
5:53 am 05:53 Clear 40 4.4 37 2.8 89 89 WNW 5 7 30.27 1025 10 16 0.00 0.00
6:53 am 06:53 Clear 39 3.9 36 2.2 89 89 NW 6 9 30.30 1026 10 16 0.00 0.00
7:53 am 07:53 Sunny 45 7.2 40 4.4 82 82 NNW 5 7 30.32 1027 10 16 0.00 0.00
8:53 am 08:53 Sunny 52 11.1 44 6.7 74 74 W 5 7 30.32 1027 10 16 0.00 0.00
9:53 am 09:53 Sunny 57 13.9 45 7.2 64 64 W 3 6 30.32 1027 10 16 0.00 0.00
10:53 am 10:53 Sunny 63 17.2 47 8.3 56 56 S 6 9 30.30 1026 10 16 0.00 0.00
11:53 am 11:53 Sunny 68 20 46 7.8 45 45 undefined N/A 30.29 1026 10 16 0.00 0.00
12:53 pm 12:53 Sunny 70 21.1 48 8.9 46 46 NE 17 28 30.27 1025 10 16 0.00 0.00
1:53 pm 13:53 Sunny with Light Rain 68 20 48 8.9 49 49 ENE 18 30 30.26 1025 10 16 0.01 0.13
2:53 pm 14:53 Sunny 67 19.4 47 8.3 49 49 NE 20 31 30.27 1025 10 16 0.01 0.13
3:53 pm 15:53 Sunny 60 15.6 47 8.3 62 62 NE 25 41 30.30 1026 10 16 0.00 0.00
4:53 pm 16:53 Sunny 54 12.2 45 7.2 71 71 ENE 24 39 30.34 1028 9 14 0.00 0.00
5:33 pm 17:33 Mostly Cloudy 52 11.1 44 6.7 74 74 ENE 20 31 30.31 1026 8 13 0.00 0.00
5:53 pm 17:53 Cloudy 50 10 44 6.7 80 80 ENE 20 31 30.38 1029 8 13 0.00 0.00
6:53 pm 18:53 Cloudy 47 8.3 43 6.1 86 86 ENE 17 28 30.41 1030 10 16 0.00 0.00
7:50 pm 19:50 Cloudy 46 8 41 5 81 81 ENE 20 31 30.41 1030 10 16 0.00 0.00
7:53 pm 19:53 Cloudy 47 8.3 41 5 80 80 ENE 17 28 30.42 1030 10 16 0.00 0.00
8:05 pm 20:05 Cloudy 47 8.3 41 5 80 80 ENE 20 31 30.41 1030 10 16 0.00 0.00
8:53 pm 20:53 Cloudy with Light Rain 45 7.2 38 3.3 76 76 NE 16 26 30.45 1031 10 16 0.01 0.13
9:50 pm 21:50 Cloudy with Heavy Rain 43 6 37 3 81 81 E 14 22 30.50 1033 3 4 0.09 2.29
9:53 pm 21:53 Cloudy with Heavy Rain 43 6.1 38 3.3 82 82 E 15 24 30.44 1031 3 4 0.14 3.56
10:02 pm 22:02 Cloudy with Heavy Rain 42 5.6 39 3.9 89 89 E 6 9 30.50 1033 3 5 0.04 1.02
10:53 pm 22:53 Cloudy with Light Rain 43 6.1 N/A N/A ESE 6 9 30.47 1032 10 16 0.05 1.27
11:33 pm 23:33 Cloudy 43 6.1 N/A N/A S 7 11 30.51 1033 10 16 0.01 0.13
11:53 pm 23:53 Cloudy with Light Rain 43 6.1 39 3.9 86 86 SE 7 11 30.44 1031 9 14 0.01 0.25

Powered by AerisWeather